Theta_e
315 317 319 327 339 347 348 346 346 346 345 345 345 344 344 345 345 343 343 333 333 338 342 345 345 344 343 341 339 339 340 339 339 339 338 337 337 336 336 335 335 334 334
312 314 316 318 322 338 342 347 344 345 346 345 343 345 344 344 344 345 342 342 331 333 339 345 346 345 344 342 339 339 338 338 339 339 338 336 335 335 335 334 334 334 333
309 311 312 314 317 324 338 342 344 342 345 344 342 343 344 343 343 343 343 341 340 329 333 341 343 344 343 342 340 339 338 337 338 338 338 336 335 334 333 333 333 333 333
308 308 309 311 315 317 326 336 339 339 337 338 337 341 343 342 342 342 342 341 340 340 332 334 338 341 341 342 341 340 339 337 336 338 336 336 335 334 333 332 332 332 332
306 306 307 309 312 313 317 325 332 336 334 335 335 337 343 341 340 340 341 341 342 341 341 332 332 333 336 339 340 341 340 337 337 338 336 335 334 333 333 331 330 330 330
305 305 305 307 310 310 312 315 324 333 335 333 334 333 337 342 340 340 339 338 341 342 342 341 341 338 330 335 338 340 341 338 338 338 337 336 335 333 332 331 330 329 329
303 301 300 301 305 309 311 313 316 325 332 338 330 330 333 338 342 341 340 338 339 340 342 341 341 340 337 330 335 339 341 341 340 339 337 335 334 332 332 331 329 329 328
298 298 300 300 301 304 307 314 315 322 331 339 329 326 321 325 333 339 339 339 340 340 339 340 340 339 339 339 337 334 338 339 340 339 337 334 334 333 332 331 330 328 328
297 298 299 301 301 301 302 307 313 316 323 332 333 325 317 317 323 332 335 338 339 340 340 339 339 339 338 338 335 332 326 328 335 337 337 335 333 332 332 331 330 328 328
296 298 299 300 302 302 302 304 308 316 322 320 329 329 322 319 322 323 333 335 338 338 340 338 338 339 338 337 333 328 321 320 325 333 335 335 334 333 331 331 329 328 328
295 296 298 299 300 303 303 304 307 312 321 324 324 323 324 316 324 323 322 328 333 337 340 341 339 337 338 337 336 330 317 317 319 326 332 334 334 334 332 331 329 328 328
293 294 295 296 298 301 304 303 309 312 318 322 326 326 318 312 312 315 324 328 327 331 336 339 340 339 337 337 332 322 315 313 315 320 326 330 332 333 332 331 330 329 328
290 291 292 295 296 300 303 306 310 313 317 317 324 325 326 320 324 322 322 326 327 330 334 338 340 340 336 338 336 321 314 310 311 315 319 322 325 328 330 330 331 330 329
289 290 292 294 297 301 303 306 309 311 319 322 320 326 325 326 326 326 324 325 324 327 330 331 337 338 339 337 333 316 330 308 309 310 313 317 319 321 323 325 327 327 328
288 289 291 292 296 299 302 308 309 312 316 321 325 327 325 326 330 329 326 327 324 318 322 329 329 337 338 340 334 337 336 313 307 307 308 311 314 317 318 319 321 323 324
287 288 288 290 292 295 298 302 308 312 313 321 324 325 325 327 328 327 330 328 326 323 323 330 332 333 336 336 332 339 337 316 307 306 305 306 309 312 314 315 316 317 319
287 286 287 288 288 290 293 295 296 297 298 298 303 305 320 324 325 326 325 322 323 323 321 326 332 333 333 334 335 337 335 337 330 305 304 304 304 306 307 309 310 312 314
286 286 286 286 286 286 288 288 288 289 289 290 291 293 295 304 310 315 316 324 323 325 320 320 328 331 330 334 333 333 333 334 336 311 306 304 304 303 303 304 304 306 307
284 285 286 285 284 285 286 285 286 285 285 286 287 287 287 289 294 297 305 304 310 319 317 319 323 328 329 327 332 333 333 333 333 309 304 303 302 302 302 301 302 303 304
283 283 283 284 284 283 284 284 284 284 283 283 284 285 286 286 286 289 291 296 299 306 312 311 312 308 305 305 304 308 319 310 308 309 310 309 305 302 301 301 300 301 302
283 283 282 281 283 283 283 283 283 282 282 282 282 283 284 286 286 286 286 286 292 295 295 297 293 292 292 293 293 296 300 303 297 297 303 306 310 316 309 300 301 300 299
281 282 282 281 281 281 282 283 283 283 281 280 279 280 281 283 284 285 285 285 284 285 286 287 287 286 284 285 289 291 292 297 302 292 294 299 302 301 298 295 294 294 295
280 281 281 282 280 280 281 281 281 282 281 281 280 279 280 281 282 284 283 283 283 283 282 282 280 280 281 283 285 286 288 290 290 287 291 295 294 295 295 292 292 293 293
281 279 279 279 280 279 279 280 280 280 280 279 279 280 279 280 280 283 283 282 280 281 282 282 281 281 282 282 283 284 285 286 289 285 286 287 291 289 292 292 290 291 291
281 280 279 278 278 279 278 279 280 280 277 277 277 278 278 278 278 281 280 280 280 280 283 283 283 283 283 283 284 286 284 285 285 284 283 283 286 286 289 289 290 291 290
281 281 279 279 278 278 277 277 279 279 277 277 276 275 276 276 277 277 277 278 276 278 280 281 282 283 283 283 282 284 283 283 284 287 284 283 284 285 285 288 290 290 292
Wind_Speed
10 10 10 9 9 9 10 11 12 12 13 16 15 15 15 15 14 8 7 15 13 14 17 18 19 20 20 20 20 19 18 16 17 17 16 15 14 13 13 15 15 17 17
10 11 11 11 11 11 10 10 11 13 12 13 15 16 16 15 15 14 10 10 14 13 14 17 19 21 22 22 21 21 20 19 19 18 17 17 15 14 13 14 14 15 17
12 13 12 12 12 11 15 10 12 11 11 12 14 15 15 16 14 15 13 10 13 14 13 13 16 18 20 21 21 21 20 22 20 20 19 18 16 16 14 14 14 15 16
13 13 12 12 12 11 10 12 11 10 10 11 10 13 14 15 16 16 13 12 11 11 11 12 13 16 17 19 22 23 23 21 21 21 21 19 18 16 15 14 15 15 15
14 13 12 12 14 13 12 12 11 12 10 11 12 12 13 15 16 14 16 16 14 11 11 17 14 14 15 18 21 24 25 22 22 23 21 20 18 17 16 16 15 16 16
15 13 13 14 13 13 13 13 16 13 12 11 12 12 13 14 14 12 15 14 15 15 13 13 14 13 14 16 20 23 24 25 24 23 22 20 20 18 16 16 15 16 16
17 15 11 14 14 14 15 16 15 16 12 14 9 11 11 15 16 13 14 13 16 16 16 13 10 11 12 14 19 23 24 25 25 24 23 21 20 20 18 17 17 17 17
15 15 14 13 15 14 16 17 17 14 14 14 12 6 9 4 10 12 14 12 15 12 16 17 15 15 13 13 17 20 23 24 25 24 23 23 22 21 21 20 19 18 17
18 16 17 14 14 13 12 15 16 16 13 14 19 7 6 9 6 9 14 14 15 13 13 16 17 16 15 13 16 17 17 17 21 23 24 23 22 22 22 22 21 21 20
17 16 15 15 15 11 15 13 14 16 15 12 12 11 3 1 8 9 14 14 14 15 16 14 15 16 16 13 15 17 21 18 17 20 23 23 23 23 23 22 23 22 22
16 17 15 15 14 12 12 16 17 17 15 13 14 9 12 8 5 11 11 11 12 14 13 14 13 14 17 15 14 13 18 21 19 17 20 22 24 23 23 23 24 24 23
12 14 16 14 14 14 14 13 19 22 17 15 13 13 11 9 12 9 7 11 14 16 15 13 13 13 14 14 15 14 19 19 20 20 19 20 22 23 24 24 25 25 25
12 15 17 14 13 14 15 15 17 19 17 13 16 13 10 11 9 14 15 12 10 13 12 13 13 13 14 13 15 15 19 19 19 20 19 18 18 19 23 24 25 25 25
13 17 16 15 16 18 15 15 13 12 16 11 14 17 12 13 13 13 14 13 11 11 11 16 13 12 12 14 15 19 16 19 19 20 20 19 19 18 19 22 24 25 25
14 16 16 15 14 11 8 12 10 10 12 14 13 13 12 12 11 12 11 12 12 11 12 14 10 16 12 13 14 14 17 19 20 19 20 20 20 22 21 20 21 23 23
16 16 16 15 14 13 11 9 8 8 10 10 8 11 12 11 12 9 10 12 11 10 11 11 13 11 14 12 13 16 17 12 20 21 19 18 18 18 19 20 20 21 22
16 17 16 16 15 16 14 14 15 16 16 15 14 13 6 12 9 9 8 6 7 11 13 9 8 11 13 13 13 13 14 14 11 17 18 18 18 18 17 18 18 20 22
17 16 17 18 17 17 17 18 18 18 20 20 18 18 17 10 8 3 4 8 13 13 7 11 8 9 10 13 12 13 12 11 12 17 18 16 17 17 17 17 16 17 16
18 17 19 21 22 17 17 20 19 20 21 20 20 21 20 19 14 10 6 4 4 3 2 6 11 6 4 1 9 10 9 10 8 10 11 13 14 14 15 15 15 15 15
18 20 21 21 21 20 21 19 19 20 21 21 19 20 20 22 21 15 10 8 6 3 5 5 4 6 6 4 6 4 3 7 6 7 8 3 9 11 12 12 12 14 15
18 18 21 22 21 20 17 17 18 20 20 19 20 20 20 24 31 27 12 12 10 8 7 7 7 5 7 6 5 5 3 3 6 8 5 5 5 2 6 4 4 5 10
18 19 21 20 21 15 32 32 23 18 19 19 18 19 17 24 20 27 26 34 28 14 15 12 9 10 8 3 5 6 4 3 2 7 6 4 5 6 6 7 13 10 10
18 19 19 20 21 20 30 30 29 18 18 19 19 17 15 15 20 14 24 29 31 32 22 12 14 11 8 9 5 5 6 5 3 7 5 2 5 2 5 6 12 12 12
18 17 19 21 21 20 31 25 22 20 18 20 20 17 17 20 21 13 12 18 20 18 19 14 13 11 9 8 8 5 4 4 1 4 9 3 5 4 4 5 11 9 10
15 16 16 19 19 20 33 28 19 14 16 18 19 21 21 20 27 24 17 17 17 16 15 22 20 20 22 24 18 5 7 3 1 3 7 4 4 4 3 3 2 5 3
12 11 15 17 25 21 30 30 20 11 14 12 14 16 28 23 28 28 18 17 17 16 14 13 12 15 15 14 19 12 9 8 5 3 9 6 4 5 4 1 1 1 3
Wind_Direction
304 302 292 287 285 282 259 245 226 228 231 236 227 228 227 228 239 231 228 167 194 209 217 218 205 196 186 185 187 187 184 181 187 185 182 178 174 171 171 172 171 163 169
304 297 289 283 276 274 272 250 243 233 229 229 232 231 226 228 221 231 228 184 185 207 220 223 210 200 193 189 187 186 182 184 186 188 186 180 175 173 172 174 173 176 177
305 299 289 282 276 270 271 255 252 233 231 235 232 229 231 229 229 225 227 229 183 201 212 210 201 198 198 194 188 187 188 188 186 190 187 183 181 182 182 185 184 186 184
300 295 288 282 280 279 272 282 245 236 225 218 221 227 227 231 221 229 221 227 228 199 196 209 198 197 198 195 192 190 189 187 191 191 192 189 188 188 189 190 192 188 187
297 293 288 285 284 277 264 259 274 236 230 221 218 220 231 229 221 221 221 217 222 226 194 184 203 196 191 192 193 192 193 194 195 196 194 193 193 193 195 194 193 185 184
299 295 293 290 285 272 267 259 257 267 223 226 223 222 218 226 226 221 221 218 215 215 228 194 195 206 197 192 193 196 199 201 202 200 198 196 197 198 199 202 202 197 185
305 299 287 286 284 274 265 264 259 249 250 220 232 228 225 225 215 210 220 210 215 205 215 224 195 207 192 197 194 198 201 205 203 202 201 199 201 200 202 202 201 200 197
303 300 292 283 278 281 273 278 250 249 248 225 219 215 237 187 228 215 217 218 206 210 209 210 215 206 204 194 206 200 204 207 205 203 202 201 200 201 201 202 199 199 200
300 292 284 278 273 269 276 268 264 257 255 235 221 199 198 210 195 209 219 214 211 208 211 208 214 212 210 206 187 195 199 204 208 206 204 201 201 201 202 202 200 199 200
303 297 288 282 273 264 265 261 280 252 247 242 229 220 224 23 248 212 209 213 219 209 211 212 210 214 210 213 203 193 185 200 201 206 206 204 202 204 204 203 203 203 203
307 305 294 288 283 268 251 262 252 265 254 239 229 231 223 230 252 305 197 210 206 216 214 211 211 209 212 212 211 199 178 194 201 201 203 206 205 206 208 207 207 207 207
316 309 309 296 292 283 256 247 255 244 250 252 233 226 217 208 221 227 282 213 208 212 210 209 211 212 211 211 215 187 176 190 200 203 201 199 202 207 208 211 212 211 211
323 317 310 296 286 274 270 247 248 247 244 236 238 225 213 213 212 202 230 242 217 219 208 210 207 210 210 207 211 198 180 188 196 203 202 201 202 203 207 211 214 216 216
325 320 314 307 296 290 242 248 258 246 247 243 252 224 221 213 218 221 221 221 221 224 201 206 205 208 210 210 213 183 196 191 196 199 202 203 202 203 204 208 211 214 217
338 326 330 325 323 327 334 267 253 253 262 244 238 238 227 220 215 212 217 235 224 216 205 204 207 207 212 215 207 198 210 186 197 200 203 204 204 204 206 205 209 213 215
348 342 349 347 345 356 4 353 296 275 274 275 251 240 232 223 219 225 226 229 232 240 235 211 205 196 206 212 196 207 213 177 196 198 202 206 210 211 209 207 208 211 213
349 356 360 359 5 11 21 41 38 29 39 25 15 8 271 238 226 224 215 223 248 240 257 233 203 197 198 208 209 202 213 203 194 201 202 204 206 210 215 214 212 211 212
356 4 6 14 20 21 25 46 46 39 42 36 26 26 13 355 357 359 284 246 215 229 254 248 210 184 198 195 192 192 203 208 207 188 203 208 209 211 213 217 220 220 219
5 6 15 23 25 24 32 45 47 49 46 42 36 37 29 19 359 358 353 4 309 244 246 222 259 167 179 351 208 188 190 205 213 139 184 204 211 216 217 216 215 219 225
13 16 19 24 26 24 28 35 43 52 49 44 40 38 34 32 22 0 1 10 12 325 211 70 344 60 52 21 36 347 104 31 26 16 16 8 185 209 222 224 220 219 221
24 18 25 25 23 29 28 27 38 47 47 45 38 39 34 36 35 31 17 18 34 42 41 51 66 51 16 27 33 352 347 325 52 16 354 32 10 31 32 48 359 292 249
24 26 26 30 27 24 31 34 36 40 48 44 37 37 27 30 30 36 30 46 46 41 47 63 52 61 24 11 18 30 359 325 227 38 349 22 15 58 49 41 5 25 39
35 30 28 28 34 25 32 36 36 37 40 43 41 32 33 25 30 32 31 42 47 46 48 55 58 41 29 1 313 53 23 335 40 6 5 5 17 25 67 50 28 6 29
36 38 34 30 31 29 29 31 45 42 43 44 42 36 37 34 28 34 39 45 43 41 41 39 43 47 33 1 15 25 343 331 176 50 26 21 3 327 347 96 42 10 29
39 42 39 36 34 34 30 24 34 45 47 43 43 35 34 36 30 32 45 52 50 41 37 45 44 41 39 31 26 26 26 32 358 45 24 357 28 309 317 60 150 51 329
40 43 44 38 34 33 30 32 28 35 42 39 45 40 36 38 37 36 37 39 43 29 24 27 27 30 29 30 27 25 9 25 10 20 28 343 357 355 332 307 6 236 331